This is the latest recevied weather packets stored in our database for station/object VE6CWS-7. If no packets are shown the sender has not sent any weather packets the latest 10 day(s).
| Time | Temp. | Humidity | Pressure | Rain* | Wind** | Luminosity | Snow |
|---|---|---|---|---|---|---|---|
| 1778003161 | 5° C | 53% | 1022.5 hPa | 0 mm | - | - | - |
| 1778002260 | 5° C | 54% | 1022.5 hPa | 0 mm | - | - | - |
| 1778001357 | 4.44° C | 53% | 1022.7 hPa | 0 mm | - | - | - |
| 1778000455 | 4.44° C | 55% | 1022.7 hPa | 0 mm | - | - | - |
| 1777999560 | 3.33° C | 58% | 1022.8 hPa | 0 mm | - | - | - |
| 1777998656 | 3.89° C | 59% | 1022.7 hPa | 0 mm | - | - | - |
| 1777997748 | 2.78° C | 61% | 1022.7 hPa | 0 mm | - | - | - |
| 1777996907 | 2.78° C | 60% | 1022.6 hPa | 0 mm | - | - | - |
| 1777995963 | 2.78° C | 61% | 1022.5 hPa | 0 mm | - | - | - |
| 1777995062 | 2.78° C | 63% | 1022.5 hPa | 0 mm | - | - | - |
| 1777994153 | 2.22° C | 65% | 1022.5 hPa | 0 mm | - | - | - |
| 1777993304 | 1.67° C | 69% | 1022.5 hPa | 0 mm | - | - | - |
| 1777992343 | 1.67° C | 70% | 1022.5 hPa | 0 mm | - | - | - |
| 1777991442 | 1.11° C | 70% | 1022.5 hPa | 0 mm | - | - | - |
| 1777990540 | 1.11° C | 72% | 1022.4 hPa | 0 mm | - | - | - |
| 1777989700 | 0.56° C | 73% | 1022.2 hPa | 0 mm | - | - | - |
| 1777988740 | 0° C | 77% | 1022.2 hPa | 0 mm | - | - | - |
| 1777987840 | -0.56° C | 79% | 1021.9 hPa | 0 mm | - | - | - |
| 1777986935 | -1.11° C | 80% | 1021.7 hPa | 0 mm | - | - | - |
| 1777986093 | -1.11° C | 80% | 1021.8 hPa | 0 mm | - | - | - |
| 1777985150 | -1.67° C | 81% | 1021.5 hPa | 0 mm | - | - | - |
| 1777984249 | -2.22° C | 81% | 1021.5 hPa | 0 mm | - | - | - |
| 1777983348 | -2.22° C | 82% | 1021.2 hPa | 0 mm | - | - | - |
| 1777982505 | -2.22° C | 82% | 1021.1 hPa | 0 mm | - | - | - |
| 1777981547 | -1.67° C | 82% | 1021 hPa | 0 mm | - | - | - |
* Rain latest hour (hover to see other rain measurements)
** Current wind speed in m/s (hover to see current wind gust speed)